• In Netherlands
  • List of Countries
  • For 7 days
  • Water Temperature
  • Satellite Maps
  • Weather Map
  • Weather Widgets
  • user-avatar
    Login

    Hourly Weather Minsk

    Today, 23 September, Saturday

    Time Temperature Precipitation Wind Pressure Humidity
    00:00 +13°C° 0 mm 5 mps 746 mmHg 77%
    01:00 +13°C° 0 mm 5 mps 746 mmHg 77%
    02:00 +12°C° 0 mm 5 mps 746 mmHg 76%
    03:00 +10°C° 0 mm 5 mps 747 mmHg 75%
    04:00 +10°C° 0 mm 5 mps 747 mmHg 75%
    05:00 +9°C° 0 mm 5 mps 747 mmHg 74%
    06:00 +10°C° 0 mm 5 mps 747 mmHg 73%
    07:00 +10°C° 0 mm 6 mps 747 mmHg 71%
    08:00 +10°C° 0 mm 6 mps 747 mmHg 70%
    09:00 +11°C° 0 mm 6 mps 747 mmHg 68%
    10:00 +14°C° 0 mm 6 mps 748 mmHg 65%
    11:00 +15°C° 0 mm 5 mps 748 mmHg 62%
    12:00 +16°C° 0 mm 5 mps 748 mmHg 61%
    13:00 +16°C° 0 mm 5 mps 748 mmHg 60%
    14:00 +17°C° 0 mm 5 mps 748 mmHg 59%
    15:00 +17°C° 0 mm 5 mps 748 mmHg 62%
    16:00 +17°C° 0 mm 4 mps 749 mmHg 65%
    17:00 +17°C° 0 mm 4 mps 749 mmHg 68%
    18:00 +15°C° 0 mm 4 mps 749 mmHg 70%
    19:00 +14°C° 0 mm 4 mps 749 mmHg 72%
    20:00 +13°C° 0 mm 4 mps 749 mmHg 75%
    21:00 +13°C° 0 mm 4 mps 750 mmHg 77%
    22:00 +12°C° 0 mm 4 mps 750 mmHg 79%
    23:00 +12°C° 0 mm 4 mps 750 mmHg 80%

    Tomorrow, 24 September, Sunday

    Time Temperature Precipitation Wind Pressure Humidity
    00:00 +11°C° 0 mm 3 mps 750 mmHg 82%
    01:00 +11°C° 0 mm 3 mps 750 mmHg 83%
    02:00 +10°C° 0 mm 3 mps 750 mmHg 85%
    03:00 +10°C° 0 mm 3 mps 750 mmHg 86%
    04:00 +10°C° 0 mm 4 mps 750 mmHg 86%
    05:00 +8°C° 0 mm 4 mps 751 mmHg 87%
    06:00 +10°C° 0 mm 4 mps 751 mmHg 85%
    07:00 +10°C° 0 mm 4 mps 751 mmHg 83%
    08:00 +10°C° 0 mm 5 mps 751 mmHg 81%
    09:00 +12°C° 0 mm 5 mps 751 mmHg 76%
    10:00 +14°C° 0 mm 5 mps 752 mmHg 70%
    11:00 +15°C° 0 mm 6 mps 752 mmHg 64%
    12:00 +16°C° 0 mm 6 mps 752 mmHg 61%
    13:00 +17°C° 0 mm 6 mps 752 mmHg 58%
    14:00 +17°C° 0 mm 6 mps 752 mmHg 55%
    15:00 +17°C° 0 mm 5 mps 752 mmHg 58%
    16:00 +16°C° 0 mm 5 mps 752 mmHg 62%
    17:00 +15°C° 0 mm 4 mps 752 mmHg 65%
    18:00 +14°C° 0 mm 4 mps 752 mmHg 67%
    19:00 +13°C° 0 mm 4 mps 752 mmHg 69%
    20:00 +13°C° 0 mm 4 mps 752 mmHg 72%
    21:00 +12°C° 0 mm 4 mps 753 mmHg 73%
    22:00 +12°C° 0 mm 4 mps 753 mmHg 74%
    23:00 +11°C° 0 mm 4 mps 753 mmHg 76%

    Day after tomorrow, 25 September, Monday

    Time Temperature Precipitation Wind Pressure Humidity
    00:00 +11°C° 0 mm 4 mps 753 mmHg 76%
    01:00 +11°C° 0 mm 4 mps 753 mmHg 76%
    02:00 +11°C° 0 mm 4 mps 753 mmHg 77%
    03:00 +10°C° 0 mm 4 mps 753 mmHg 78%
    04:00 +10°C° 0 mm 4 mps 754 mmHg 80%
    05:00 +10°C° 0 mm 4 mps 754 mmHg 82%
    06:00 +10°C° 0 mm 4 mps 754 mmHg 81%
    07:00 +9°C° 0 mm 5 mps 754 mmHg 80%
    08:00 +9°C° 0 mm 5 mps 754 mmHg 79%
    09:00 +12°C° 0 mm 5 mps 754 mmHg 74%
    10:00 +14°C° 0 mm 5 mps 755 mmHg 69%
    11:00 +15°C° 0 mm 5 mps 755 mmHg 64%
    12:00 +16°C° 0 mm 5 mps 755 mmHg 62%
    13:00 +17°C° 0 mm 5 mps 755 mmHg 59%
    14:00 +19°C° 0 mm 5 mps 755 mmHg 57%
    15:00 +17°C° 0 mm 5 mps 755 mmHg 60%
    16:00 +18°C° 0 mm 4 mps 755 mmHg 64%
    17:00 +17°C° 0 mm 4 mps 755 mmHg 67%
    18:00 +15°C° 0 mm 4 mps 755 mmHg 70%
    19:00 +14°C° 0 mm 4 mps 755 mmHg 72%
    20:00 +13°C° 0 mm 4 mps 755 mmHg 74%
    21:00 +13°C° 0 mm 4 mps 756 mmHg 76%
    22:00 +12°C° 0 mm 4 mps 756 mmHg 77%
    23:00 +12°C° 0 mm 4 mps 756 mmHg 78%

    26 September, Tuesday

    Time Temperature Precipitation Wind Pressure Humidity
    00:00 +11°C° 0 mm 4 mps 756 mmHg 79%
    01:00 +11°C° 0 mm 4 mps 756 mmHg 81%
    02:00 +10°C° 0 mm 3 mps 756 mmHg 82%
    03:00 +10°C° 0 mm 3 mps 756 mmHg 83%
    04:00 +8°C° 0 mm 4 mps 756 mmHg 84%
    05:00 +8°C° 0 mm 4 mps 756 mmHg 85%
    06:00 +8°C° 0 mm 4 mps 756 mmHg 82%
    07:00 +8°C° 0 mm 4 mps 756 mmHg 79%
    08:00 +10°C° 0 mm 4 mps 757 mmHg 75%
    09:00 +11°C° 0 mm 4 mps 757 mmHg 69%
    10:00 +13°C° 0 mm 4 mps 757 mmHg 63%
    11:00 +14°C° 0 mm 4 mps 757 mmHg 57%
    12:00 +15°C° 0 mm 4 mps 757 mmHg 55%
    13:00 +17°C° 0 mm 4 mps 757 mmHg 53%
    14:00 +18°C° 0 mm 4 mps 756 mmHg 50%
    15:00 +17°C° 0 mm 4 mps 756 mmHg 54%
    16:00 +16°C° 0 mm 3 mps 756 mmHg 59%
    17:00 +14°C° 0 mm 3 mps 756 mmHg 63%
    18:00 +13°C° 0 mm 3 mps 756 mmHg 67%
    19:00 +12°C° 0 mm 3 mps 756 mmHg 71%
    20:00 +10°C° 0 mm 3 mps 757 mmHg 74%
    21:00 +10°C° 0 mm 3 mps 757 mmHg 77%
    22:00 +10°C° 0 mm 3 mps 757 mmHg 79%
    23:00 +9°C° 0 mm 3 mps 757 mmHg 82%

    27 September, Wednesday

    Time Temperature Precipitation Wind Pressure Humidity
    00:00 +9°C° 0 mm 3 mps 757 mmHg 84%
    01:00 +8°C° 0 mm 3 mps 757 mmHg 86%
    02:00 +8°C° 0 mm 2 mps 757 mmHg 88%
    03:00 +8°C° 0 mm 2 mps 757 mmHg 89%
    04:00 +8°C° 0 mm 2 mps 757 mmHg 91%
    05:00 +7°C° 0 mm 2 mps 757 mmHg 92%
    06:00 +8°C° 0 mm 3 mps 758 mmHg 90%
    07:00 +9°C° 0 mm 3 mps 758 mmHg 88%
    08:00 +10°C° 0 mm 3 mps 758 mmHg 86%
    09:00 +11°C° 0 mm 4 mps 758 mmHg 80%
    10:00 +13°C° 0 mm 4 mps 758 mmHg 73%
    11:00 +14°C° 0 mm 4 mps 759 mmHg 67%
    12:00 +15°C° 0 mm 4 mps 758 mmHg 63%
    13:00 +15°C° 0 mm 4 mps 758 mmHg 59%
    14:00 +17°C° 0 mm 4 mps 758 mmHg 55%
    15:00 +16°C° 0 mm 3 mps 758 mmHg 58%
    16:00 +14°C° 0 mm 3 mps 758 mmHg 62%
    17:00 +14°C° 0 mm 3 mps 758 mmHg 65%
    18:00 +12°C° 0 mm 3 mps 758 mmHg 69%
    19:00 +11°C° 0 mm 3 mps 758 mmHg 73%
    20:00 +10°C° 0 mm 3 mps 758 mmHg 76%
    21:00 +9°C° 0 mm 2 mps 758 mmHg 78%
    22:00 +9°C° 0 mm 2 mps 759 mmHg 79%
    23:00 +8°C° 0 mm 2 mps 759 mmHg 81%

    28 September, Thursday

    Time Temperature Precipitation Wind Pressure Humidity
    00:00 +8°C° 0 mm 2 mps 759 mmHg 82%
    01:00 +8°C° 0 mm 2 mps 759 mmHg 83%
    02:00 +8°C° 0 mm 1 mps 759 mmHg 84%
    03:00 +8°C° 0 mm 1 mps 759 mmHg 84%
    04:00 +8°C° 0 mm 1 mps 759 mmHg 85%
    05:00 +8°C° 0 mm 1 mps 759 mmHg 86%
    06:00 +9°C° 0 mm 1 mps 759 mmHg 83%
    07:00 +9°C° 0 mm 1 mps 759 mmHg 81%
    08:00 +10°C° 0 mm 1 mps 759 mmHg 78%
    09:00 +12°C° 0 mm 1 mps 759 mmHg 72%
    10:00 +13°C° 0 mm 1 mps 759 mmHg 65%
    11:00 +15°C° 0 mm 2 mps 759 mmHg 59%
    12:00 +16°C° 0 mm 2 mps 759 mmHg 58%
    13:00 +17°C° 0 mm 2 mps 758 mmHg 56%
    14:00 +17°C° 0 mm 2 mps 758 mmHg 54%
    15:00 +16°C° 0 mm 2 mps 758 mmHg 59%
    16:00 +16°C° 0 mm 1 mps 758 mmHg 64%
    17:00 +15°C° 0 mm 1 mps 757 mmHg 68%
    18:00 +14°C° 0 mm 1 mps 757 mmHg 71%
    19:00 +14°C° 0 mm 1 mps 757 mmHg 74%
    20:00 +13°C° 0 mm 2 mps 757 mmHg 77%
    21:00 +13°C° 0 mm 1 mps 758 mmHg 78%
    22:00 +13°C° 0 mm 1 mps 758 mmHg 78%
    23:00 +13°C° 0 mm 1 mps 758 mmHg 78%
    Show more